contact:dominique.lefevre@mio.osupytheas.fr, maurice.libes@osupytheas.fr, didier.mallarino@osupytheas.fr
Project:EMSO http://www.emso-fr.org/EMSO-France
Depth: 2436.0 m
Title:EMSO Ligure Ouest : Data MII capteur MICROCAT
DateTime_Computer,Latitude,Longitude,Temperature,Conductivity,Pressure,DateTime_Instrument
DateTime_Computer,Latitude,Longitude,degC,S m-1,dbar,DateTime_Instrument
2023-10-04T00:00:04Z,42.805,6.029,13.3034,4.60111,2470.8,2023-10-04T02:02:28Z
2023-10-04T00:03:07Z,42.805,6.029,13.3034,4.60105,2470.777,2023-10-04T02:05:31Z
2023-10-04T00:06:10Z,42.805,6.029,13.3036,4.60113,2470.763,2023-10-04T02:08:34Z
2023-10-04T00:09:13Z,42.805,6.029,13.3036,4.60107,2470.754,2023-10-04T02:11:37Z
2023-10-04T00:12:16Z,42.805,6.029,13.3039,4.60102,2470.763,2023-10-04T02:14:40Z
2023-10-04T00:15:19Z,42.805,6.029,13.3034,4.60104,2470.777,2023-10-04T02:17:43Z
2023-10-04T00:18:22Z,42.805,6.029,13.3034,4.60118,2470.787,2023-10-04T02:20:46Z
2023-10-04T00:21:26Z,42.805,6.029,13.3037,4.60129,2470.8,2023-10-04T02:23:49Z
2023-10-04T00:24:29Z,42.805,6.029,13.3037,4.60119,2470.777,2023-10-04T02:26:52Z
2023-10-04T00:27:32Z,42.805,6.029,13.3034,4.60110,2470.74,2023-10-04T02:29:55Z
2023-10-04T00:30:35Z,42.805,6.029,13.3034,4.60110,2470.763,2023-10-04T02:32:58Z
2023-10-04T00:33:38Z,42.805,6.029,13.3037,4.60103,2470.726,2023-10-04T02:36:01Z
2023-10-04T00:36:41Z,42.805,6.029,13.3038,4.60124,2470.74,2023-10-04T02:39:04Z
2023-10-04T00:39:44Z,42.805,6.029,13.3031,4.60106,2470.763,2023-10-04T02:42:08Z
2023-10-04T00:42:47Z,42.805,6.029,13.3031,4.60104,2470.74,2023-10-04T02:45:11Z
2023-10-04T00:45:50Z,42.805,6.029,13.3031,4.60106,2470.754,2023-10-04T02:48:14Z
2023-10-04T00:48:53Z,42.805,6.029,13.3034,4.60104,2470.787,2023-10-04T02:51:17Z
2023-10-04T00:51:56Z,42.805,6.029,13.3034,4.60102,2470.74,2023-10-04T02:54:20Z
2023-10-04T00:54:59Z,42.805,6.029,13.3032,4.60102,2470.763,2023-10-04T02:57:23Z
2023-10-04T00:58:02Z,42.805,6.029,13.3034,4.60105,2470.73,2023-10-04T03:00:26Z
2023-10-04T01:01:05Z,42.805,6.029,13.3029,4.60104,2470.74,2023-10-04T03:03:29Z
2023-10-04T01:04:09Z,42.805,6.029,13.3034,4.60099,2470.777,2023-10-04T03:06:32Z
2023-10-04T01:07:12Z,42.805,6.029,13.3041,4.60104,2470.74,2023-10-04T03:09:35Z
2023-10-04T01:10:15Z,42.805,6.029,13.3040,4.60104,2470.74,2023-10-04T03:12:38Z
2023-10-04T01:13:18Z,42.805,6.029,13.3034,4.60104,2470.74,2023-10-04T03:15:41Z
2023-10-04T01:16:21Z,42.805,6.029,13.3038,4.60102,2470.74,2023-10-04T03:18:44Z
2023-10-04T01:19:24Z,42.805,6.029,13.3036,4.60102,2470.717,2023-10-04T03:21:47Z
2023-10-04T01:22:27Z,42.805,6.029,13.3040,4.60103,2470.726,2023-10-04T03:24:51Z
2023-10-04T01:25:30Z,42.805,6.029,13.3040,4.60102,2470.74,2023-10-04T03:27:54Z
2023-10-04T01:28:33Z,42.805,6.029,13.3041,4.60103,2470.777,2023-10-04T03:30:57Z
2023-10-04T01:31:36Z,42.805,6.029,13.3034,4.60104,2470.73,2023-10-04T03:34:00Z
2023-10-04T01:34:39Z,42.805,6.029,13.3033,4.60101,2470.754,2023-10-04T03:37:03Z
2023-10-04T01:37:42Z,42.805,6.029,13.3031,4.60099,2470.73,2023-10-04T03:40:06Z
2023-10-04T01:40:45Z,42.805,6.029,13.3034,4.60102,2470.74,2023-10-04T03:43:09Z
2023-10-04T01:43:49Z,42.805,6.029,13.3034,4.60110,2470.717,2023-10-04T03:46:12Z
2023-10-04T01:46:52Z,42.805,6.029,13.3031,4.60107,2470.717,2023-10-04T03:49:15Z
2023-10-04T01:49:55Z,42.805,6.029,13.3034,4.60119,2470.717,2023-10-04T03:52:18Z
2023-10-04T01:52:58Z,42.805,6.029,13.3029,4.60105,2470.73,2023-10-04T03:55:21Z
2023-10-04T01:56:01Z,42.805,6.029,13.3036,4.60105,2470.74,2023-10-04T03:58:24Z
2023-10-04T01:59:04Z,42.805,6.029,13.3035,4.60098,2470.73,2023-10-04T04:01:27Z
2023-10-04T02:02:07Z,42.805,6.029,13.3031,4.60097,2470.754,2023-10-04T04:04:31Z
2023-10-04T02:05:10Z,42.805,6.029,13.3037,4.60098,2470.73,2023-10-04T04:07:34Z
2023-10-04T02:08:13Z,42.805,6.029,13.3032,4.60097,2470.74,2023-10-04T04:10:37Z
2023-10-04T02:11:16Z,42.805,6.029,13.3029,4.60096,2470.754,2023-10-04T04:13:40Z
2023-10-04T02:14:19Z,42.805,6.029,13.3031,4.60096,2470.74,2023-10-04T04:16:43Z
2023-10-04T02:17:22Z,42.805,6.029,13.3034,4.60102,2470.693,2023-10-04T04:19:46Z
2023-10-04T02:20:25Z,42.805,6.029,13.3029,4.60104,2470.693,2023-10-04T04:22:49Z
2023-10-04T02:23:29Z,42.805,6.029,13.3029,4.60099,2470.73,2023-10-04T04:25:52Z
2023-10-04T02:26:32Z,42.805,6.029,13.3031,4.60102,2470.73,2023-10-04T04:28:55Z
2023-10-04T02:29:35Z,42.805,6.029,13.3031,4.60099,2470.73,2023-10-04T04:31:58Z
2023-10-04T02:32:38Z,42.805,6.029,13.3029,4.60100,2470.693,2023-10-04T04:35:01Z
2023-10-04T02:35:41Z,42.805,6.029,13.3033,4.60099,2470.73,2023-10-04T04:38:04Z
2023-10-04T02:38:44Z,42.805,6.029,13.3031,4.60097,2470.693,2023-10-04T04:41:07Z
2023-10-04T02:41:47Z,42.805,6.029,13.3031,4.60102,2470.693,2023-10-04T04:44:11Z
2023-10-04T02:44:50Z,42.805,6.029,13.3031,4.60109,2470.693,2023-10-04T04:47:14Z
2023-10-04T02:47:53Z,42.805,6.029,13.3034,4.60098,2470.717,2023-10-04T04:50:17Z
2023-10-04T02:50:56Z,42.805,6.029,13.3033,4.60101,2470.693,2023-10-04T04:53:20Z
2023-10-04T02:53:59Z,42.805,6.029,13.3031,4.60121,2470.693,2023-10-04T04:56:23Z
2023-10-04T02:57:02Z,42.805,6.029,13.3032,4.60108,2470.73,2023-10-04T04:59:26Z
2023-10-04T03:00:05Z,42.805,6.029,13.3034,4.60104,2470.67,2023-10-04T05:02:29Z
2023-10-04T03:03:08Z,42.805,6.029,13.3030,4.60101,2470.717,2023-10-04T05:05:32Z
2023-10-04T03:06:12Z,42.805,6.029,13.3032,4.60101,2470.717,2023-10-04T05:08:35Z
2023-10-04T03:09:15Z,42.805,6.029,13.3033,4.60099,2470.717,2023-10-04T05:11:38Z
2023-10-04T03:12:18Z,42.805,6.029,13.3034,4.60104,2470.693,2023-10-04T05:14:41Z
2023-10-04T03:15:21Z,42.805,6.029,13.3034,4.60099,2470.67,2023-10-04T05:17:44Z
2023-10-04T03:18:24Z,42.805,6.029,13.3033,4.60111,2470.717,2023-10-04T05:20:47Z
2023-10-04T03:21:27Z,42.805,6.029,13.3038,4.60102,2470.693,2023-10-04T05:23:51Z
2023-10-04T03:24:30Z,42.805,6.029,13.3033,4.60106,2470.67,2023-10-04T05:26:54Z
2023-10-04T03:27:33Z,42.805,6.029,13.3040,4.60110,2470.693,2023-10-04T05:29:57Z
2023-10-04T03:30:36Z,42.805,6.029,13.3041,4.60110,2470.73,2023-10-04T05:33:00Z
2023-10-04T03:33:39Z,42.805,6.029,13.3039,4.60112,2470.684,2023-10-04T05:36:03Z
2023-10-04T03:36:42Z,42.805,6.029,13.3036,4.60126,2470.684,2023-10-04T05:39:06Z
2023-10-04T03:39:45Z,42.805,6.029,13.3034,4.60119,2470.693,2023-10-04T05:42:09Z
2023-10-04T03:42:49Z,42.805,6.029,13.3038,4.60105,2470.693,2023-10-04T05:45:12Z
2023-10-04T03:45:52Z,42.805,6.029,13.3037,4.60105,2470.693,2023-10-04T05:48:15Z
2023-10-04T03:48:55Z,42.805,6.029,13.3036,4.60105,2470.693,2023-10-04T05:51:18Z
2023-10-04T03:51:58Z,42.805,6.029,13.3040,4.60103,2470.684,2023-10-04T05:54:21Z
2023-10-04T03:55:01Z,42.805,6.029,13.3036,4.60105,2470.684,2023-10-04T05:57:24Z
2023-10-04T03:58:04Z,42.805,6.029,13.3035,4.60104,2470.707,2023-10-04T06:00:27Z
2023-10-04T04:01:07Z,42.805,6.029,13.3035,4.60103,2470.67,2023-10-04T06:03:31Z
2023-10-04T04:04:10Z,42.805,6.029,13.3043,4.60104,2470.707,2023-10-04T06:06:34Z
2023-10-04T04:07:13Z,42.805,6.029,13.3034,4.60108,2470.73,2023-10-04T06:09:37Z
2023-10-04T04:10:16Z,42.805,6.029,13.3036,4.60104,2470.67,2023-10-04T06:12:40Z
2023-10-04T04:13:19Z,42.805,6.029,13.3033,4.60108,2470.646,2023-10-04T06:15:43Z
2023-10-04T04:16:22Z,42.805,6.029,13.3043,4.60107,2470.646,2023-10-04T06:18:46Z
2023-10-04T04:19:25Z,42.805,6.029,13.3034,4.60115,2470.707,2023-10-04T06:21:49Z
2023-10-04T04:22:29Z,42.805,6.029,13.3036,4.60108,2470.707,2023-10-04T06:24:52Z
2023-10-04T04:25:32Z,42.805,6.029,13.3039,4.60113,2470.646,2023-10-04T06:27:55Z
2023-10-04T04:28:35Z,42.805,6.029,13.3032,4.60107,2470.67,2023-10-04T06:30:58Z
2023-10-04T04:31:39Z,42.805,6.029,13.3035,4.60116,2470.693,2023-10-04T06:34:03Z
2023-10-04T04:34:42Z,42.805,6.029,13.3039,4.60108,2470.707,2023-10-04T06:37:06Z
2023-10-04T04:37:45Z,42.805,6.029,13.3035,4.60110,2470.707,2023-10-04T06:40:09Z
2023-10-04T04:40:49Z,42.805,6.029,13.3035,4.60104,2470.693,2023-10-04T06:43:12Z
2023-10-04T04:43:52Z,42.805,6.029,13.3037,4.60112,2470.67,2023-10-04T06:46:15Z
2023-10-04T04:46:55Z,42.805,6.029,13.3036,4.60119,2470.67,2023-10-04T06:49:18Z
2023-10-04T04:49:58Z,42.805,6.029,13.3036,4.60117,2470.693,2023-10-04T06:52:21Z
2023-10-04T04:53:01Z,42.805,6.029,13.3037,4.60102,2470.67,2023-10-04T06:55:24Z
2023-10-04T04:56:04Z,42.805,6.029,13.3038,4.60104,2470.707,2023-10-04T06:58:28Z
2023-10-04T04:59:07Z,42.805,6.029,13.3034,4.60113,2470.693,2023-10-04T07:01:31Z
2023-10-04T05:02:10Z,42.805,6.029,13.3036,4.60113,2470.693,2023-10-04T07:04:34Z
2023-10-04T05:05:13Z,42.805,6.029,13.3032,4.60104,2470.693,2023-10-04T07:07:37Z
2023-10-04T05:08:16Z,42.805,6.029,13.3034,4.60102,2470.67,2023-10-04T07:10:40Z
2023-10-04T05:11:19Z,42.805,6.029,13.3034,4.60101,2470.707,2023-10-04T07:13:43Z
2023-10-04T05:14:22Z,42.805,6.029,13.3033,4.60105,2470.684,2023-10-04T07:16:46Z
2023-10-04T05:17:26Z,42.805,6.029,13.3034,4.60102,2470.693,2023-10-04T07:19:49Z
2023-10-04T05:20:29Z,42.805,6.029,13.3036,4.60102,2470.693,2023-10-04T07:22:52Z
2023-10-04T05:23:32Z,42.805,6.029,13.3031,4.60105,2470.67,2023-10-04T07:25:55Z
2023-10-04T05:26:35Z,42.805,6.029,13.3036,4.60112,2470.693,2023-10-04T07:28:58Z
2023-10-04T05:29:38Z,42.805,6.029,13.3038,4.60114,2470.754,2023-10-04T07:32:01Z
2023-10-04T05:32:41Z,42.805,6.029,13.3034,4.60105,2470.67,2023-10-04T07:35:04Z
2023-10-04T05:35:44Z,42.805,6.029,13.3036,4.60102,2470.693,2023-10-04T07:38:08Z
2023-10-04T05:38:47Z,42.805,6.029,13.3034,4.60102,2470.717,2023-10-04T07:41:11Z
2023-10-04T05:41:50Z,42.805,6.029,13.3035,4.60110,2470.67,2023-10-04T07:44:14Z
2023-10-04T05:44:53Z,42.805,6.029,13.3037,4.60102,2470.67,2023-10-04T07:47:17Z
2023-10-04T05:47:56Z,42.805,6.029,13.3036,4.60112,2470.717,2023-10-04T07:50:20Z
2023-10-04T05:50:59Z,42.805,6.029,13.3034,4.60138,2470.73,2023-10-04T07:53:23Z
2023-10-04T05:54:02Z,42.805,6.029,13.3034,4.60134,2470.717,2023-10-04T07:56:26Z
2023-10-04T05:57:06Z,42.805,6.029,13.3034,4.60116,2470.693,2023-10-04T07:59:29Z
2023-10-04T06:00:09Z,42.805,6.029,13.3036,4.60120,2470.693,2023-10-04T08:02:32Z
2023-10-04T06:03:12Z,42.805,6.029,13.3034,4.60108,2470.707,2023-10-04T08:05:35Z
2023-10-04T06:06:15Z,42.805,6.029,13.3034,4.60111,2470.717,2023-10-04T08:08:38Z
2023-10-04T06:09:18Z,42.805,6.029,13.3034,4.60105,2470.707,2023-10-04T08:11:41Z
2023-10-04T06:12:21Z,42.805,6.029,13.3031,4.60106,2470.717,2023-10-04T08:14:44Z
2023-10-04T06:15:24Z,42.805,6.029,13.3034,4.60110,2470.693,2023-10-04T08:17:48Z
2023-10-04T06:18:27Z,42.805,6.029,13.3034,4.60114,2470.707,2023-10-04T08:20:51Z
2023-10-04T06:21:30Z,42.805,6.029,13.3036,4.60109,2470.717,2023-10-04T08:23:54Z
2023-10-04T06:24:33Z,42.805,6.029,13.3032,4.60108,2470.703,2023-10-04T08:26:57Z
2023-10-04T06:27:36Z,42.805,6.029,13.3036,4.60107,2470.73,2023-10-04T08:30:00Z
2023-10-04T06:30:38Z,42.805,6.029,13.3037,4.60113,2470.74,2023-10-04T08:33:02Z
2023-10-04T06:33:41Z,42.805,6.029,13.3037,4.60137,2470.73,2023-10-04T08:36:05Z
2023-10-04T06:36:44Z,42.805,6.029,13.3045,4.60114,2470.693,2023-10-04T08:39:08Z
2023-10-04T06:39:47Z,42.805,6.029,13.3039,4.60176,2470.707,2023-10-04T08:42:11Z
2023-10-04T06:42:51Z,42.805,6.029,13.3039,4.60141,2470.74,2023-10-04T08:45:14Z
2023-10-04T06:45:54Z,42.805,6.029,13.3036,4.60152,2470.754,2023-10-04T08:48:17Z
2023-10-04T06:48:57Z,42.805,6.029,13.3045,4.60137,2470.763,2023-10-04T08:51:20Z
2023-10-04T06:52:00Z,42.805,6.029,13.3047,4.60135,2470.717,2023-10-04T08:54:23Z
2023-10-04T06:55:03Z,42.805,6.029,13.3101,4.60127,2470.717,2023-10-04T08:57:26Z
2023-10-04T06:58:06Z,42.805,6.029,13.3058,4.60160,2470.777,2023-10-04T09:00:30Z
2023-10-04T07:01:09Z,42.805,6.029,13.3130,4.60162,2470.777,2023-10-04T09:03:33Z
2023-10-04T07:04:12Z,42.805,6.029,13.3048,4.60173,2470.777,2023-10-04T09:06:36Z
2023-10-04T07:07:15Z,42.805,6.029,13.3055,4.60146,2470.777,2023-10-04T09:09:39Z
2023-10-04T07:10:18Z,42.805,6.029,13.3068,4.60132,2470.754,2023-10-04T09:12:42Z
2023-10-04T07:13:21Z,42.805,6.029,13.3056,4.60128,2470.73,2023-10-04T09:15:45Z
2023-10-04T07:16:24Z,42.805,6.029,13.3056,4.60121,2470.777,2023-10-04T09:18:48Z
2023-10-04T07:19:27Z,42.805,6.029,13.3133,4.60117,2470.763,2023-10-04T09:21:51Z
2023-10-04T07:22:31Z,42.805,6.029,13.3111,4.60114,2470.763,2023-10-04T09:24:54Z
2023-10-04T07:25:34Z,42.805,6.029,13.3068,4.60123,2470.763,2023-10-04T09:27:57Z
2023-10-04T07:28:37Z,42.805,6.029,13.3085,4.60115,2470.787,2023-10-04T09:31:00Z
2023-10-04T07:31:40Z,42.805,6.029,13.3089,4.60117,2470.754,2023-10-04T09:34:03Z
2023-10-04T07:34:43Z,42.805,6.029,13.3095,4.60114,2470.763,2023-10-04T09:37:06Z
2023-10-04T07:37:46Z,42.805,6.029,13.3092,4.60119,2470.777,2023-10-04T09:40:10Z
2023-10-04T07:40:49Z,42.805,6.029,13.3096,4.60129,2470.763,2023-10-04T09:43:13Z
2023-10-04T07:43:52Z,42.805,6.029,13.3109,4.60140,2470.787,2023-10-04T09:46:16Z
2023-10-04T07:46:55Z,42.805,6.029,13.3106,4.60145,2470.824,2023-10-04T09:49:19Z
2023-10-04T07:49:58Z,42.805,6.029,13.3106,4.60150,2470.8,2023-10-04T09:52:22Z
2023-10-04T07:53:01Z,42.805,6.029,13.3078,4.60153,2470.838,2023-10-04T09:55:25Z
2023-10-04T07:56:04Z,42.805,6.029,13.3093,4.60157,2470.824,2023-10-04T09:58:28Z
2023-10-04T07:59:07Z,42.805,6.029,13.3100,4.60118,2470.787,2023-10-04T10:01:31Z
2023-10-04T08:02:11Z,42.805,6.029,13.3098,4.60115,2470.787,2023-10-04T10:04:34Z
2023-10-04T08:05:14Z,42.805,6.029,13.3091,4.60122,2470.777,2023-10-04T10:07:37Z
2023-10-04T08:08:17Z,42.805,6.029,13.3079,4.60119,2470.763,2023-10-04T10:10:40Z
2023-10-04T08:11:20Z,42.805,6.029,13.3073,4.60122,2470.833,2023-10-04T10:13:43Z
2023-10-04T08:14:23Z,42.805,6.029,13.3061,4.60156,2470.833,2023-10-04T10:16:46Z
2023-10-04T08:17:26Z,42.805,6.029,13.3064,4.60160,2470.824,2023-10-04T10:19:50Z
2023-10-04T08:20:29Z,42.805,6.029,13.3053,4.60159,2470.824,2023-10-04T10:22:53Z
2023-10-04T08:23:32Z,42.805,6.029,13.3068,4.60167,2470.847,2023-10-04T10:25:56Z
2023-10-04T08:26:35Z,42.805,6.029,13.3073,4.60165,2470.824,2023-10-04T10:28:59Z
2023-10-04T08:29:38Z,42.805,6.029,13.3084,4.60150,2470.847,2023-10-04T10:32:02Z
2023-10-04T08:32:42Z,42.805,6.029,13.3089,4.60127,2470.833,2023-10-04T10:35:05Z
2023-10-04T08:35:45Z,42.805,6.029,13.3104,4.60127,2470.81,2023-10-04T10:38:08Z
2023-10-04T08:38:48Z,42.805,6.029,13.3104,4.60144,2470.871,2023-10-04T10:41:11Z
2023-10-04T08:41:51Z,42.805,6.029,13.3099,4.60165,2470.857,2023-10-04T10:44:14Z
2023-10-04T08:44:54Z,42.805,6.029,13.3100,4.60172,2470.833,2023-10-04T10:47:18Z
2023-10-04T08:47:57Z,42.805,6.029,13.3104,4.60144,2470.824,2023-10-04T10:50:21Z
2023-10-04T08:51:00Z,42.805,6.029,13.3099,4.60147,2470.847,2023-10-04T10:53:24Z
2023-10-04T08:54:03Z,42.805,6.029,13.3078,4.60132,2470.847,2023-10-04T10:56:27Z
2023-10-04T08:57:06Z,42.805,6.029,13.3073,4.60140,2470.857,2023-10-04T10:59:30Z
2023-10-04T09:00:09Z,42.805,6.029,13.3083,4.60129,2470.82,2023-10-04T11:02:33Z
2023-10-04T09:03:12Z,42.805,6.029,13.3097,4.60131,2470.857,2023-10-04T11:05:36Z
2023-10-04T09:06:16Z,42.805,6.029,13.3095,4.60132,2470.871,2023-10-04T11:08:39Z
2023-10-04T09:09:19Z,42.805,6.029,13.3091,4.60128,2470.857,2023-10-04T11:11:42Z
2023-10-04T09:12:22Z,42.805,6.029,13.3085,4.60145,2470.871,2023-10-04T11:14:45Z
2023-10-04T09:15:25Z,42.805,6.029,13.3078,4.60138,2470.857,2023-10-04T11:17:48Z
2023-10-04T09:18:28Z,42.805,6.029,13.3073,4.60133,2470.82,2023-10-04T11:20:51Z
2023-10-04T09:21:31Z,42.805,6.029,13.3071,4.60149,2470.871,2023-10-04T11:23:55Z
2023-10-04T09:24:34Z,42.805,6.029,13.3072,4.60135,2470.847,2023-10-04T11:26:58Z
2023-10-04T09:27:37Z,42.805,6.029,13.3071,4.60138,2470.871,2023-10-04T11:30:01Z
2023-10-04T09:30:40Z,42.805,6.029,13.3054,4.60178,2470.857,2023-10-04T11:33:04Z
2023-10-04T09:33:43Z,42.805,6.029,13.3065,4.60153,2470.871,2023-10-04T11:36:07Z
2023-10-04T09:36:46Z,42.805,6.029,13.3069,4.60130,2470.857,2023-10-04T11:39:10Z
2023-10-04T09:39:49Z,42.805,6.029,13.3076,4.60127,2470.847,2023-10-04T11:42:13Z
2023-10-04T09:42:53Z,42.805,6.029,13.3084,4.60119,2470.857,2023-10-04T11:45:16Z
2023-10-04T09:45:56Z,42.805,6.029,13.3077,4.60118,2470.871,2023-10-04T11:48:19Z
2023-10-04T09:48:59Z,42.805,6.029,13.3078,4.60116,2470.847,2023-10-04T11:51:22Z
2023-10-04T09:52:02Z,42.805,6.029,13.3070,4.60118,2470.871,2023-10-04T11:54:25Z
2023-10-04T09:55:05Z,42.805,6.029,13.3065,4.60130,2470.871,2023-10-04T11:57:28Z
2023-10-04T09:58:08Z,42.805,6.029,13.3078,4.60133,2470.857,2023-10-04T12:00:32Z
2023-10-04T10:01:11Z,42.805,6.029,13.3080,4.60119,2470.871,2023-10-04T12:03:35Z
2023-10-04T10:04:14Z,42.805,6.029,13.3076,4.60122,2470.871,2023-10-04T12:06:38Z
2023-10-04T10:07:17Z,42.805,6.029,13.3066,4.60114,2470.88,2023-10-04T12:09:41Z
2023-10-04T10:10:20Z,42.805,6.029,13.3066,4.60130,2470.857,2023-10-04T12:12:44Z
2023-10-04T10:13:23Z,42.805,6.029,13.3060,4.60128,2470.88,2023-10-04T12:15:47Z
2023-10-04T10:16:26Z,42.805,6.029,13.3073,4.60142,2470.833,2023-10-04T12:18:50Z
2023-10-04T10:19:30Z,42.805,6.029,13.3071,4.60141,2470.857,2023-10-04T12:21:53Z
2023-10-04T10:22:33Z,42.805,6.029,13.3067,4.60147,2470.857,2023-10-04T12:24:56Z
2023-10-04T10:25:36Z,42.805,6.029,13.3057,4.60142,2470.894,2023-10-04T12:27:59Z
2023-10-04T10:28:39Z,42.805,6.029,13.3063,4.60125,2470.857,2023-10-04T12:31:02Z
2023-10-04T10:31:42Z,42.805,6.029,13.3076,4.60155,2470.871,2023-10-04T12:34:05Z
2023-10-04T10:34:45Z,42.805,6.029,13.3063,4.60150,2470.857,2023-10-04T12:37:09Z
2023-10-04T10:37:48Z,42.805,6.029,13.3066,4.60115,2470.88,2023-10-04T12:40:12Z
2023-10-04T10:40:51Z,42.805,6.029,13.3078,4.60123,2470.847,2023-10-04T12:43:15Z
2023-10-04T10:43:54Z,42.805,6.029,13.3072,4.60119,2470.88,2023-10-04T12:46:18Z
2023-10-04T10:46:57Z,42.805,6.029,13.3065,4.60140,2470.894,2023-10-04T12:49:21Z
2023-10-04T10:50:00Z,42.805,6.029,13.3062,4.60149,2470.857,2023-10-04T12:52:24Z
2023-10-04T10:53:03Z,42.805,6.029,13.3091,4.60137,2470.871,2023-10-04T12:55:27Z
2023-10-04T10:56:07Z,42.805,6.029,13.3085,4.60152,2470.833,2023-10-04T12:58:30Z
2023-10-04T10:59:10Z,42.805,6.029,13.3082,4.60144,2470.847,2023-10-04T13:01:33Z
2023-10-04T11:02:13Z,42.805,6.029,13.3078,4.60147,2470.833,2023-10-04T13:04:36Z
2023-10-04T11:05:16Z,42.805,6.029,13.3110,4.60140,2470.88,2023-10-04T13:07:39Z
2023-10-04T11:08:19Z,42.805,6.029,13.3081,4.60138,2470.871,2023-10-04T13:10:42Z
2023-10-04T11:11:22Z,42.805,6.029,13.3082,4.60140,2470.833,2023-10-04T13:13:46Z
2023-10-04T11:14:25Z,42.805,6.029,13.3120,4.60128,2470.871,2023-10-04T13:16:49Z
2023-10-04T11:17:28Z,42.805,6.029,13.3084,4.60140,2470.843,2023-10-04T13:19:52Z
2023-10-04T11:20:31Z,42.805,6.029,13.3081,4.60137,2470.847,2023-10-04T13:22:55Z
2023-10-04T11:23:34Z,42.805,6.029,13.3082,4.60139,2470.847,2023-10-04T13:25:58Z
2023-10-04T11:26:37Z,42.805,6.029,13.3085,4.60152,2470.871,2023-10-04T13:29:01Z
2023-10-04T11:29:40Z,42.805,6.029,13.3081,4.60155,2470.833,2023-10-04T13:32:04Z
2023-10-04T11:32:44Z,42.805,6.029,13.3084,4.60142,2470.847,2023-10-04T13:35:07Z
2023-10-04T11:35:47Z,42.805,6.029,13.3110,4.60161,2470.847,2023-10-04T13:38:10Z
2023-10-04T11:38:50Z,42.805,6.029,13.3101,4.60143,2470.857,2023-10-04T13:41:13Z
2023-10-04T11:41:53Z,42.805,6.029,13.3093,4.60146,2470.847,2023-10-04T13:44:16Z
2023-10-04T11:44:56Z,42.805,6.029,13.3084,4.60153,2470.857,2023-10-04T13:47:19Z
2023-10-04T11:47:59Z,42.805,6.029,13.3086,4.60148,2470.871,2023-10-04T13:50:23Z
2023-10-04T11:51:02Z,42.805,6.029,13.3128,4.60120,2470.824,2023-10-04T13:53:26Z
2023-10-04T11:54:05Z,42.805,6.029,13.3097,4.60130,2470.81,2023-10-04T13:56:29Z
2023-10-04T11:57:08Z,42.805,6.029,13.3090,4.60125,2470.847,2023-10-04T13:59:32Z
2023-10-04T12:00:11Z,42.805,6.029,13.3084,4.60135,2470.847,2023-10-04T14:02:35Z
2023-10-04T12:03:14Z,42.805,6.029,13.3095,4.60136,2470.833,2023-10-04T14:05:38Z
2023-10-04T12:06:17Z,42.805,6.029,13.3078,4.60135,2470.81,2023-10-04T14:08:41Z
2023-10-04T12:09:21Z,42.805,6.029,13.3076,4.60147,2470.847,2023-10-04T14:11:44Z
2023-10-04T12:12:24Z,42.805,6.029,13.3090,4.60144,2470.833,2023-10-04T14:14:47Z
2023-10-04T12:15:27Z,42.805,6.029,13.3082,4.60142,2470.847,2023-10-04T14:17:50Z
2023-10-04T12:18:30Z,42.805,6.029,13.3103,4.60135,2470.81,2023-10-04T14:20:53Z
2023-10-04T12:21:33Z,42.805,6.029,13.3090,4.60134,2470.847,2023-10-04T14:23:56Z
2023-10-04T12:24:36Z,42.805,6.029,13.3085,4.60138,2470.824,2023-10-04T14:27:00Z
2023-10-04T12:27:39Z,42.805,6.029,13.3068,4.60134,2470.824,2023-10-04T14:30:03Z
2023-10-04T12:30:44Z,42.805,6.029,13.3082,4.60135,2470.81,2023-10-04T14:33:07Z
2023-10-04T12:33:47Z,42.805,6.029,13.3066,4.60127,2470.824,2023-10-04T14:36:10Z
2023-10-04T12:36:50Z,42.805,6.029,13.3080,4.60125,2470.833,2023-10-04T14:39:13Z
2023-10-04T12:39:53Z,42.805,6.029,13.3066,4.60131,2470.824,2023-10-04T14:42:17Z
2023-10-04T12:42:56Z,42.805,6.029,13.3072,4.60120,2470.847,2023-10-04T14:45:20Z
2023-10-04T12:45:59Z,42.805,6.029,13.3061,4.60128,2470.824,2023-10-04T14:48:23Z
2023-10-04T12:49:02Z,42.805,6.029,13.3067,4.60129,2470.81,2023-10-04T14:51:26Z
2023-10-04T12:52:05Z,42.805,6.029,13.3067,4.60135,2470.8,2023-10-04T14:54:29Z
2023-10-04T12:55:08Z,42.805,6.029,13.3070,4.60122,2470.787,2023-10-04T14:57:32Z
2023-10-04T12:58:11Z,42.805,6.029,13.3063,4.60152,2470.8,2023-10-04T15:00:35Z
2023-10-04T13:01:15Z,42.805,6.029,13.3071,4.60127,2470.777,2023-10-04T15:03:38Z
2023-10-04T13:04:18Z,42.805,6.029,13.3076,4.60132,2470.787,2023-10-04T15:06:41Z
2023-10-04T13:07:21Z,42.805,6.029,13.3069,4.60135,2470.787,2023-10-04T15:09:44Z
2023-10-04T13:10:24Z,42.805,6.029,13.3070,4.60131,2470.81,2023-10-04T15:12:47Z
2023-10-04T13:13:27Z,42.805,6.029,13.3080,4.60125,2470.824,2023-10-04T15:15:50Z
2023-10-04T13:16:30Z,42.805,6.029,13.3078,4.60160,2470.8,2023-10-04T15:18:54Z
2023-10-04T13:19:33Z,42.805,6.029,13.3063,4.60131,2470.81,2023-10-04T15:21:57Z
2023-10-04T13:22:36Z,42.805,6.029,13.3067,4.60126,2470.824,2023-10-04T15:25:00Z
2023-10-04T13:25:39Z,42.805,6.029,13.3068,4.60134,2470.787,2023-10-04T15:28:03Z
2023-10-04T13:28:42Z,42.805,6.029,13.3078,4.60125,2470.81,2023-10-04T15:31:06Z
2023-10-04T13:31:45Z,42.805,6.029,13.3073,4.60125,2470.787,2023-10-04T15:34:09Z
2023-10-04T13:34:48Z,42.805,6.029,13.3072,4.60121,2470.8,2023-10-04T15:37:12Z
2023-10-04T13:37:51Z,42.805,6.029,13.3069,4.60131,2470.8,2023-10-04T15:40:15Z
2023-10-04T13:40:55Z,42.805,6.029,13.3067,4.60128,2470.81,2023-10-04T15:43:18Z
2023-10-04T13:43:58Z,42.805,6.029,13.3070,4.60132,2470.8,2023-10-04T15:46:21Z
2023-10-04T13:47:01Z,42.805,6.029,13.3066,4.60122,2470.8,2023-10-04T15:49:24Z
2023-10-04T13:50:04Z,42.805,6.029,13.3069,4.60128,2470.777,2023-10-04T15:52:27Z
2023-10-04T13:53:07Z,42.805,6.029,13.3081,4.60119,2470.74,2023-10-04T15:55:30Z
2023-10-04T13:56:10Z,42.805,6.029,13.3069,4.60127,2470.763,2023-10-04T15:58:34Z
2023-10-04T13:59:13Z,42.805,6.029,13.3054,4.60117,2470.796,2023-10-04T16:01:37Z
2023-10-04T14:02:16Z,42.805,6.029,13.3063,4.60117,2470.754,2023-10-04T16:04:40Z
2023-10-04T14:05:19Z,42.805,6.029,13.3059,4.60118,2470.787,2023-10-04T16:07:43Z
2023-10-04T14:08:22Z,42.805,6.029,13.3059,4.60133,2470.777,2023-10-04T16:10:46Z
2023-10-04T14:11:25Z,42.805,6.029,13.3066,4.60130,2470.824,2023-10-04T16:13:49Z
2023-10-04T14:14:28Z,42.805,6.029,13.3070,4.60142,2470.8,2023-10-04T16:16:52Z
2023-10-04T14:17:32Z,42.805,6.029,13.3071,4.60122,2470.787,2023-10-04T16:19:55Z
2023-10-04T14:20:35Z,42.805,6.029,13.3071,4.60118,2470.777,2023-10-04T16:22:58Z
2023-10-04T14:23:38Z,42.805,6.029,13.3058,4.60117,2470.787,2023-10-04T16:26:01Z
2023-10-04T14:26:41Z,42.805,6.029,13.3060,4.60113,2470.787,2023-10-04T16:29:04Z
2023-10-04T14:29:44Z,42.805,6.029,13.3058,4.60118,2470.8,2023-10-04T16:32:07Z
2023-10-04T14:32:47Z,42.805,6.029,13.3048,4.60114,2470.763,2023-10-04T16:35:11Z
2023-10-04T14:35:50Z,42.805,6.029,13.3051,4.60119,2470.777,2023-10-04T16:38:14Z
2023-10-04T14:38:53Z,42.805,6.029,13.3049,4.60107,2470.763,2023-10-04T16:41:17Z
2023-10-04T14:41:56Z,42.805,6.029,13.3053,4.60115,2470.763,2023-10-04T16:44:20Z
2023-10-04T14:44:59Z,42.805,6.029,13.3056,4.60110,2470.763,2023-10-04T16:47:23Z
2023-10-04T14:48:03Z,42.805,6.029,13.3056,4.60119,2470.787,2023-10-04T16:50:26Z
2023-10-04T14:51:06Z,42.805,6.029,13.3051,4.60110,2470.787,2023-10-04T16:53:29Z
2023-10-04T14:54:09Z,42.805,6.029,13.3052,4.60117,2470.787,2023-10-04T16:56:32Z
2023-10-04T14:57:12Z,42.805,6.029,13.3058,4.60114,2470.717,2023-10-04T16:59:35Z
2023-10-04T15:00:15Z,42.805,6.029,13.3067,4.60150,2470.787,2023-10-04T17:02:38Z